SOYUZ-MS 26

Last updated on Mon Apr 21 2025 00:02:07 GMT+0000 (Coordinated Universal Time)

1 61043U 24162A 25109.83885864 .00017165 00000+0 31101-3 0 9994 2 61043 51.6357 236.0368 0005356 56.6188 303.5313 15.49720884505752

Satellite not in orbit

SOYUZ-MS 26